DRAGON CRS-27 (55860 NORAD) Tracking and Keplerian Element Data

This shows tracking and keplerian element data for the satellite.

Feedback or suggestion? Click here.




ElementValue
Catalog55860
NameDRAGON CRS-27
Epoch Orbit38878
Epoch Day84.33064495
Epoch Year2023
RAAN24.0027
Inclination51.6424
Eccentricity0.0006186
Argument of Perigee130.1254
Mean Anonmoly7.8345
Mean Motion15.49509892
Decay Rate0.00020909
L11 55860U 23033A 23084.33064495 .00020909 00000+0 37966-3 0 9999
L22 55860 51.6424 24.0027 0006186 130.1254 7.8345 15.49509892388783



Live tracking and technical data element details for DRAGON CRS-27 (NORAD 55860). DRAGON CRS-27 can be tracked NOW for your location showing map with azimuth and elevation plus other details from your city location.







IsCatalogInMostPopularTable: catalog: 55860, numindb: 6
Update: records affected: 1



GetName: 55860 DRAGON CRS-27

Hit Count: updated at: Tue, 06 Jun 2023 01:40:14 GMT